Pagina principale
METAR-TAF:

METAR-TAF

Aeroporti :

Aeroporto di Salerno-Costa d'Amalfi

Salerno, Italia

latitudine: 40-37N, longitudine: 014-55E, altezza: 40 m

Osservazione

Il bollettino è stato emesso 1 ora e 4 minuti fa, alle 10:50 UTC
Vento 16 kt da est
Temperature 7°C
Umidità 57%
Pressione 1030 hPa
Visibilità 10 km o più
Cielo coperto ad un'altezza di 7000 ft

METAR: LIRI 091050Z 10016KT 9999 OVC070 07/M01 Q1030

Ora: 12:54 (11:54 UTC)


TAF: mancante

Osservazioni e previsioni meteorologiche di più di 4000 aeroporti (messaggi METAR e TAF).

Le stazioni disponibili sono rappresentate dai dischi gialli e rossi sulla carta.

Puntare il mouse per vedere il nome della stazione.

Clicca sopra per visualizzare le osservazioni e previsioni meteorologiche.

Per cambiare la mappa : fare clic sui pulsanti verdi con una croce nera per ingrandire, il pulsante verde con un trattino per diminuire, o sulla freccia verde per le mappe adiacenti.


METAR-TAF: